User: anonymous   Login
Location: Unspecified
(0.0000°N, 0.0000°E)
Time: 01:58:12
(UTC+00:00)
Language:

USA 278 - Orbit

View from above orbital plane
View from above orbital plane
View from above satellite
View from above satellite

Ground track
Ground track

The orbit data is extracted from the following two-line orbital elements,

1 42941U 17056A   18133.83835663 0.00000000  00000-0  00000-0 0    00
2 42941  63.6614 143.3739 6822745 268.2318  19.1824  2.00610000    06
Epoch (UTC): 13 May 2018 20:07:14
Eccentricity: 0.6822745
inclination: 63.6614°
perigee height: 2059 km
apogee height: 38296 km
right ascension of ascending node: 143.3739°
argument of perigee: 268.2318°
revolutions per day: 2.00610000
mean anomaly at epoch: 19.1824°
orbit number at epoch: 0

The dashed part of the orbit path shows where the satellite is in the earth's shadow,  

DLR